Weather History for Monticello, AR

Change the Weather History Date:

Tuesday, March 26, 2013

  Actual Average Record
Temperature  
Mean Temperature 40 °F -  
Max Temperature 52 °F 64 °F 84 °F (2011)
Min Temperature 30 °F 41 °F 28 °F (1982)
Degree Days  
Heating Degree Days 24    
Moisture  
Dew Point 24 °F    
Average Humidity 55    
Maximum Humidity 76    
Minimum Humidity 32    
Precipitation  
Precipitation 0.00 in - - ()
Sea Level Pressure  
Sea Level Pressure 30.37 in    
Wind  
Wind Speed 5 mph (NW)    
Max Wind Speed 12 mph    
Max Gust Speed 16 mph    
Visibility 10 miles    
Events      
Averages and records for this station are not official NWS values.
T = Trace of Precipitation, MM = Missing Value Source: NWS Daily Summary

Daily Weather History Graph

Daily Weather History Graph

Search for Another Location

Airport:

Trip Planner

Search our weather history database for the weather conditions in past years. The results will help you decide how hot, cold, wet, or windy it might be!

Date:

Astronomy

Mar. 26, 2013 Rise Set
Actual Time 7:02 AM CDT 7:23 PM CDT
Civil Twilight 6:37 AM CDT 7:48 PM CDT
Nautical Twilight 6:08 AM CDT 8:17 PM CDT
Astronomical Twilight 5:38 AM CDT 8:47 PM CDT
Moon 6:59 PM CDT (3/26) 6:18 AM CDT (3/26)
Length of Visible Light 13h 10m
Length of Day
12h 21m
Waxing Gibbous, 99% of the Moon is Illuminated
Mar 26
Waxing Gibbous
Mar 27
Full
Apr 2
Last Quarter
Apr 10
New
Apr 18
First Quarter

Hourly Weather History & Observations

Time (CDT) Temp. Windchill Dew Point Humidity Pressure Visibility Wind Dir Wind Speed Gust Speed Precip Events Conditions
12:53 AM 33.1 °F 27.7 °F 21.0 °F 61% 30.34 in 10.0 mi West 5.8 mph - N/A   Clear
1:53 AM 34.0 °F 28.8 °F 19.9 °F 56% 30.34 in 10.0 mi WNW 5.8 mph - N/A   Partly Cloudy
2:53 AM 32.0 °F 27.5 °F 21.0 °F 64% 30.33 in 10.0 mi West 4.6 mph - N/A   Partly Cloudy
3:53 AM 32.0 °F 26.4 °F 21.0 °F 64% 30.33 in 10.0 mi WNW 5.8 mph - N/A   Clear
4:53 AM 32.0 °F 27.5 °F 21.0 °F 64% 30.33 in 10.0 mi NW 4.6 mph - N/A   Clear
5:53 AM 32.0 °F 26.4 °F 21.0 °F 64% 30.35 in 10.0 mi NW 5.8 mph - N/A   Clear
6:53 AM 30.9 °F 25.2 °F 21.9 °F 69% 30.36 in 10.0 mi WNW 5.8 mph - N/A   Clear
7:53 AM 32.0 °F 27.5 °F 21.9 °F 66% 30.40 in 10.0 mi WNW 4.6 mph - N/A   Clear
8:53 AM 35.1 °F 29.3 °F 21.9 °F 59% 30.41 in 10.0 mi Variable 6.9 mph 16.1 mph N/A   Clear
9:53 AM 39.0 °F 34.0 °F 23.0 °F 53% 30.43 in 10.0 mi North 6.9 mph - N/A   Clear
10:53 AM 39.9 °F 37.8 °F 21.9 °F 49% 30.44 in 10.0 mi NW 3.5 mph - N/A   Scattered Clouds
11:53 AM 42.1 °F 37.7 °F 21.9 °F 45% 30.43 in 10.0 mi WNW 6.9 mph - N/A   Mostly Cloudy
12:53 PM 46.0 °F 42.5 °F 23.0 °F 40% 30.42 in 10.0 mi NW 6.9 mph - N/A   Scattered Clouds
1:53 PM 48.0 °F - 23.0 °F 37% 30.40 in 10.0 mi WNW 8.1 mph - N/A   Scattered Clouds
2:53 PM 48.0 °F - 21.9 °F 36% 30.38 in 10.0 mi Variable 4.6 mph - N/A   Partly Cloudy
3:53 PM 51.1 °F - 21.9 °F 32% 30.36 in 10.0 mi NW 11.5 mph - N/A   Clear
4:53 PM 51.1 °F - 21.9 °F 32% 30.34 in 10.0 mi NW 6.9 mph - N/A   Partly Cloudy
5:53 PM 50.0 °F - 21.0 °F 32% 30.34 in 10.0 mi NW 3.5 mph - N/A   Clear
6:53 PM 48.0 °F - 28.0 °F 46% 30.35 in 10.0 mi East 5.8 mph - N/A   Clear
7:53 PM 44.1 °F 42.5 °F 30.0 °F 58% 30.36 in 10.0 mi ESE 3.5 mph - N/A   Clear
8:53 PM 41.0 °F - 30.0 °F 65% 30.37 in 10.0 mi Calm Calm - N/A   Clear
9:53 PM 39.0 °F - 30.9 °F 73% 30.38 in 10.0 mi Calm Calm - N/A   Clear
10:53 PM 37.0 °F 34.5 °F 30.0 °F 76% 30.38 in 10.0 mi SE 3.5 mph - N/A   Clear
11:53 PM 37.9 °F 35.5 °F 28.9 °F 70% 30.38 in 10.0 mi SSE 3.5 mph - N/A   Clear